Location: Helion Bumpstead
(52.0500°N, 0.4000°E)
Time: 21:06:53
(UTC+00:00)

USA 267 - Pass Details

Date: 15 November 2025
Orbit: 1100 x 1108 km, 123.0° (Epoch: 21 November)

Event Time Altitude Azimuth Distance (km) Brightness Sun altitude
Rises 05:04:31 0° 60° (ENE) 3,926 7.1 -20.4°
Reaches altitude 10° 05:07:01 10° 62° (ENE) 2,965 6.3 -20.0°
Maximum altitude 05:13:35 80° 149° (SSE) 1,121 3.3 -19.0°
Enters shadow 05:18:48 17° 236° (SW) 2,455 4.7 -18.2°
